Regional Weather Roundup
Issued by NWS

Home | Current Version | Previous Version | Graphics & Text | Print | Product List | Glossary Off
Versions: 1 2 3 4 5 6 7 8 9 10 11 12 13 14 15 16 17 18 19 20 21 22 23 24 25 26 27 28 29 30 31 32 33 34 35 36 37 38 39 40 41 42 43 44 45 46 47 48 49 50

000
ASUS43 KTOP 271859
RWRKS

WEATHER ROUNDUP FOR KANSAS
NATIONAL WEATHER SERVICE GOODLAND KS
200 PM CDT TUE JUN 27 2017

NOTE:  "FAIR" INDICATES FEW OR NO CLOUDS BELOW 12,000 FEET WITH NO
SIGNIFICANT WEATHER AND/OR OBSTRUCTIONS TO VISIBILITY.

KSZ001>006-013>018-027>032-041>047-272000-
NORTHWEST KANSAS

CITY           SKY/WX    TMP DP  RH WIND       PRES   REMARKS
GOODLAND       SUNNY     87  62  43 SE23G30   29.84F
HAYS           SUNNY     92  65  40 S18G24    29.86F
HILL CITY      SUNNY     92  62  36 S14G23    29.84F
RUSSELL        MOSUNNY   91  66  43 SW21G29   29.86F
$$

KSZ061>065-074>080-084>089-272000-
SOUTHWEST KANSAS

CITY           SKY/WX    TMP DP  RH WIND       PRES   REMARKS
DODGE CITY     SUNNY     91  57  31 S18G31    29.91F
ELKHART          N/A     88  51  28 S18         N/A
GARDEN CITY    SUNNY     95  53  24 S25G36    29.88F
GREAT BEND     SUNNY     94  63  35 S24G32    29.88F HX  95
LIBERAL        SUNNY     92  58  31 S23G30    29.92F
$$

KSZ066>073-081>083-090>101-272000-
SOUTHEAST KANSAS

CITY           SKY/WX    TMP DP  RH WIND       PRES   REMARKS
CHANUTE        MOSUNNY   83  63  50 S12       30.02S
COFFEYVILLE    CLOUDY    83  67  58 S9        30.01F
HUTCHINSON     MOSUNNY   92  66  42 S18G26    29.91F
MEDICINE LODGE   N/A     92  64  39 S20G28    29.90F
NEWTON         MOSUNNY   83  71  67 SE18      29.96F
PARSONS        CLOUDY    82  65  56 S8        30.03S
WICHITA INTL   MOSUNNY   88  71  57 S18G26    29.94F
WICHITA JABRA  PTSUNNY   84  71  65 S14G24    29.96F
WINFIELD       MOSUNNY   86  72  62 S16       29.97F
$$

KSZ007>012-019>026-033>040-048>060-102>105-272000-
NORTHEAST KANSAS

CITY           SKY/WX    TMP DP  RH WIND       PRES   REMARKS
CONCORDIA      MOSUNNY   81  67  62 SE23G30   29.93F
EMPORIA        CLOUDY    74  67  78 S14       29.98F
LAWRENCE       MOSUNNY   80  66  62 SE13G21   30.01F
MANHATTAN      MOSUNNY   78  66  66 SE15      29.96F
OLATHE IND     MOSUNNY   79  65  62 SE13      30.02F
OLATHE EXE     MOSUNNY   77  65  66 SE13      30.03F
SALINA         PTSUNNY   86  69  56 S15G26    29.92F
TOPEKA BILLARD PTSUNNY   80  68  66 SE15      29.99F
TOPEKA FORBES  MOSUNNY   82  67  60 SE12      29.99F
$$



USA.gov is the U.S. government's official web portal to all federal, state and local government web resources and services.